Location: Sternwarte Hubelmatt
(47.0367°N, 8.3053°E)
Time: 03:28:53
(UTC+02:00)

UWE-3 - Pass Details

Date: 29 April 2024
Orbit: 569 x 652 km, 97.8° (Epoch: 23 May)

Event Time Altitude Azimuth Distance (km) Brightness Sun altitude
Rises 04:40:21 0° 7° (N) 2,881 ? -14.4°
Reaches altitude 10° 04:42:36 10° 0° (N) 1,985 ? -14.1°
Maximum altitude 04:46:40 42° 290° (WNW) 895 ? -13.5°
Enters shadow 04:49:16 20° 229° (SW) 1,448 ? -13.2°
